Regional Weather Roundup
Issued by NWS Midland/Odessa, TX

Skip options and go directly to product.
Home | Oldest Version | Previous Version | Current Version | All | Graphics & Text | Save Text | Print | Product List | Glossary On

Skip product version selection by date and time.   
915
ASUS44 KMAF 042110
RWRMAF
MIDLAND AREA WEATHER ROUNDUP
NATIONAL WEATHER SERVICE MIDLAND TX
400 PM CDT WED MAY 04 2016

...IN SOUTHWEST TEXAS AND SOUTHEAST NEW MEXICO...

CITY           SKY/WX    TMP DP  RH WIND       PRES   REMARKS
ALPINE         SUNNY     77  20  12 NE6       30.26F
ANDREWS        FAIR      80  29  16 W5        30.15F
ARTESIA        SUNNY     79  28  15 VRB3      30.18F
BIG SPRING     SUNNY     80  33  18 NW10      30.14F
CARLSBAD       SUNNY     80  29  15 VRB3      30.15F
DRYDEN           N/A     86  37  17 SE6       30.08F
FORT STOCKTON  SUNNY     81  29  15 VRB3      30.15F
GUAD PASS      SUNNY     73  23  15 MISG      30.26F
HOBBS          SUNNY     81  25  12 N6        30.17F
MARFA          SUNNY     76  24  14 VRB6      30.22F
MIDLAND AIRPK  SUNNY     84  28  13 CALM      30.14F
MIDLAND INTL   SUNNY     85  27  12 NW12      30.13F
ODESSA         SUNNY     84  27  12 N14       30.14F
PECOS          SUNNY     83  32  16 CALM      30.13F
PRESIDIO       FAIR      89  35  15 MISG      30.08F
SEMINOLE       SUNNY     82  27  13 CALM      30.16F
SNYDER           N/A     80  37  21 N5        30.12F
WINK           SUNNY     85  27  12 NE12G17   30.12F
$$
...OTHER STATIONS IN TEXAS...

CITY           SKY/WX    TMP DP  RH WIND       PRES   REMARKS
ABILENE        SUNNY     79  43  27 N12       30.09F
AMARILLO       SUNNY     77  36  22 MISG      30.17F
AUSTIN         MOSUNNY   84  51  31 NW10      30.00F
BROWNSVILLE    SUNNY     81  51  35 NE14      30.04F
CORPUS CHRISTI MOSUNNY   88  45  22 N15G21    30.00F
DALLAS FTW     SUNNY     81  47  30 NW15G24   29.99F
DEL RIO        SUNNY     85  45  24 VRB3      30.04F
EL PASO        MOSUNNY   83  24  11 S9        30.13F
HOUSTON INT    MOSUNNY   80  50  34 NW14G22   29.98F
LUBBOCK        SUNNY     82  31  15 VRB5      30.13F
SAN ANGELO     SUNNY     82  38  20 VRB7      30.10F
SAN ANTONIO    MOSUNNY   86  52  30 N9G18     30.02F
WACO           SUNNY     84  49  29 NW16G23   30.00F
WICHITA FALLS  NOT AVBL
$$
...OTHER LOCATIONS IN NEW MEXICO...

CITY           SKY/WX    TMP DP  RH WIND       PRES   REMARKS
ALAMAGORDO     SUNNY     81  27  13 E6        30.17F
ALBUQUERQUE    MOSUNNY   75  23  14 CALM      30.23F
CANNON AFB     SUNNY     78  28  15 N7G17     30.19F
CLOVIS         SUNNY     75  32  20 NW5       30.21S
HOLLOMAN AFB   SUNNY     81  23  11 VRB1      30.15F
ROSWELL        SUNNY     81  21  11 VRB7      30.17F
RUIDOSO        SUNNY     68  16  13 S6        30.32F
SANTA FE       SUNNY     71  16  12 E5        30.27F
TRUTH OR CONSE SUNNY     80  23  12 SE8G20    30.18F
TUCUMCARI      SUNNY     81  25  12 CALM      30.17F
$$

USA.gov is the U.S. government's official web portal to all federal, state and local government web resources and services.